| time (UTC) | temp F | wind direction | speed MPH | gust MPH | rain 1hr in | rain 24hr in | rain mn in | humidity % | barometer mb |
| 20260831105041 | 76 | 203 | 0.0 | 1.0 | 0.00 | 0.00 | 0.00 | 85 | 1010.9 |
| 20260831104537 | 76 | 203 | 0.0 | 2.0 | 0.00 | 0.00 | 0.00 | 85 | 1010.8 |
| 20260831104034 | 76 | 203 | 0.0 | 2.0 | 0.00 | 0.00 | 0.00 | 85 | 1010.8 |
| 20260831103550 | 76 | 203 | 1.0 | 2.0 | 0.00 | 0.00 | 0.00 | 85 | 1010.8 |
| 20260831103046 | 76 | 203 | 0.0 | 2.0 | 0.00 | 0.00 | 0.00 | 85 | 1010.8 |
| 20260831102540 | 76 | 203 | 0.0 | 2.0 | 0.00 | 0.00 | 0.00 | 85 | 1010.8 |
| 20260831102040 | 76 | 203 | 0.0 | 2.0 | 0.00 | 0.00 | 0.00 | 85 | 1010.8 |
| 20260831101536 | 76 | 203 | 1.0 | 2.0 | 0.00 | 0.00 | 0.00 | 85 | 1010.7 |
| 20260831101051 | 76 | 203 | 0.0 | 0.0 | 0.00 | 0.00 | 0.00 | 84 | 1010.7 |
| 20260831100558 | 76 | 203 | 0.0 | 1.0 | 0.00 | 0.00 | 0.00 | 84 | 1010.7 |
| 20260831100035 | 76 | 203 | 0.0 | 1.0 | 0.00 | 0.00 | 0.00 | 83 | 1010.7 |
| 20260831095532 | 76 | 203 | 0.0 | 1.0 | 0.00 | 0.00 | 0.00 | 83 | 1010.6 |
| 20260831095047 | 76 | 203 | 0.0 | 0.0 | 0.00 | 0.00 | 0.00 | 83 | 1010.5 |
| 20260831094544 | 76 | 203 | 0.0 | 2.0 | 0.00 | 0.00 | 0.00 | 82 | 1010.3 |
| 20260831094101 | 77 | 203 | 1.0 | 2.0 | 0.00 | 0.00 | 0.00 | 82 | 1010.3 |
| 20260831093537 | 77 | 203 | 0.0 | 2.0 | 0.00 | 0.00 | 0.00 | 82 | 1010.2 |
| 20260831093034 | 77 | 203 | 1.0 | 2.0 | 0.00 | 0.00 | 0.00 | 82 | 1010.2 |
| 20260831092530 | 77 | 203 | 0.0 | 2.0 | 0.00 | 0.00 | 0.00 | 81 | 1010.1 |
| 20260831092045 | 77 | 203 | 0.0 | 2.0 | 0.00 | 0.00 | 0.00 | 81 | 1010.1 |
| 20260831091542 | 77 | 203 | 0.0 | 4.0 | 0.00 | 0.00 | 0.00 | 81 | 1010.1 |
| 20260831091038 | 77 | 203 | 2.0 | 4.0 | 0.00 | 0.00 | 0.00 | 81 | 1010.1 |
| 20260831090610 | 77 | 203 | 0.0 | 2.0 | 0.00 | 0.00 | 0.00 | 81 | 1009.9 |
| 20260831090105 | 77 | 203 | 1.0 | 4.0 | 0.00 | 0.00 | 0.00 | 80 | 1010.0 |
| 20260831085539 | 77 | 203 | 1.0 | 4.0 | 0.00 | 0.00 | 0.00 | 80 | 1010.0 |
| 20260831085037 | 77 | 205 | 1.0 | 4.0 | 0.00 | 0.00 | 0.00 | 80 | 1009.9 |
| 20260831084532 | 77 | 213 | 1.0 | 3.0 | 0.00 | 0.00 | 0.00 | 79 | 1009.9 |
| 20260831084048 | 78 | 214 | 1.0 | 3.0 | 0.00 | 0.00 | 0.00 | 79 | 1009.9 |
| 20260831083544 | 78 | 217 | 1.0 | 3.0 | 0.00 | 0.00 | 0.00 | 79 | 1009.9 |
| 20260831083044 | 78 | 217 | 1.0 | 4.0 | 0.00 | 0.00 | 0.00 | 79 | 1009.8 |
| 20260831082540 | 78 | 217 | 1.0 | 6.0 | 0.00 | 0.00 | 0.00 | 78 | 1009.8 |
| 20260831082036 | 78 | 209 | 1.0 | 6.0 | 0.00 | 0.00 | 0.00 | 78 | 1009.8 |
| 20260831081532 | 78 | 175 | 2.0 | 5.0 | 0.00 | 0.00 | 0.00 | 78 | 1009.7 |
| 20260831081049 | 79 | 198 | 2.0 | 8.0 | 0.00 | 0.00 | 0.00 | 78 | 1009.7 |
| 20260831080556 | 79 | 200 | 1.0 | 8.0 | 0.00 | 0.00 | 0.00 | 78 | 1009.6 |
| 20260831080032 | 79 | 185 | 1.0 | 4.0 | 0.00 | 0.00 | 0.00 | 78 | 1009.6 |
| 20260831075548 | 79 | 165 | 1.0 | 4.0 | 0.00 | 0.00 | 0.00 | 77 | 1009.5 |
| 20260831075044 | 79 | 139 | 2.0 | 5.0 | 0.00 | 0.00 | 0.00 | 77 | 1009.6 |
| 20260831074540 | 79 | 124 | 2.0 | 5.0 | 0.00 | 0.00 | 0.00 | 77 | 1009.7 |
| 20260831074055 | 79 | 201 | 2.0 | 5.0 | 0.00 | 0.00 | 0.00 | 77 | 1009.8 |
| 20260831073531 | 79 | 203 | 1.0 | 7.0 | 0.00 | 0.00 | 0.00 | 78 | 1009.9 |
| 20260831073108 | 79 | 200 | 2.0 | 7.0 | 0.00 | 0.00 | 0.00 | 78 | 1010.0 |
| 20260831072542 | 79 | 191 | 2.0 | 5.0 | 0.00 | 0.00 | 0.00 | 79 | 1010.1 |
| 20260831072037 | 79 | 194 | 3.0 | 5.0 | 0.00 | 0.00 | 0.00 | 79 | 1010.1 |
| 20260831071533 | 79 | 191 | 1.0 | 3.0 | 0.00 | 0.00 | 0.00 | 79 | 1010.1 |
| 20260831071049 | 79 | 192 | 1.0 | 3.0 | 0.00 | 0.00 | 0.00 | 79 | 1010.1 |
| 20260831070618 | 79 | 192 | 2.0 | 4.0 | 0.00 | 0.00 | 0.00 | 79 | 1010.1 |
| 20260831070035 | 79 | 193 | 1.0 | 4.0 | 0.00 | 0.00 | 0.00 | 79 | 1010.3 |
| 20260831065529 | 80 | 193 | 2.0 | 4.0 | 0.00 | 0.00 | 0.00 | 79 | 1010.3 |
| 20260831065030 | 80 | 243 | 1.0 | 3.0 | 0.00 | 0.00 | 0.00 | 78 | 1010.2 |
| 20260831064604 | 80 | 259 | 1.0 | 2.0 | 0.00 | 0.00 | 0.00 | 78 | 1010.2 |
| 20260831064041 | 80 | 259 | 1.0 | 2.0 | 0.00 | 0.00 | 0.00 | 78 | 1010.1 |
| 20260831063556 | 80 | 259 | 1.0 | 2.0 | 0.00 | 0.00 | 0.00 | 77 | 1010.0 |
| 20260831063035 | 80 | 259 | 1.0 | 4.0 | 0.00 | 0.00 | 0.00 | 78 | 1010.0 |
| 20260831062548 | 80 | 259 | 1.0 | 4.0 | 0.00 | 0.00 | 0.00 | 77 | 1010.0 |
| 20260831062047 | 81 | 183 | 1.0 | 2.0 | 0.00 | 0.00 | 0.00 | 76 | 1009.9 |
| 20260831061541 | 81 | 183 | 1.0 | 3.0 | 0.00 | 0.00 | 0.00 | 75 | 1009.7 |
| 20260831061039 | 81 | 183 | 2.0 | 3.0 | 0.00 | 0.00 | 0.00 | 74 | 1009.6 |
| 20260831060633 | 81 | 181 | 1.0 | 4.0 | 0.00 | 0.00 | 0.00 | 74 | 1009.5 |
| 20260831060046 | 82 | 188 | 2.0 | 7.0 | 0.00 | 0.00 | 0.00 | 74 | 1009.5 |
| 20260831055540 | 82 | 195 | 2.0 | 5.0 | 0.00 | 0.00 | 0.00 | 74 | 1009.4 |
| 20260831055055 | 82 | 194 | 2.0 | 5.0 | 0.00 | 0.00 | 0.00 | 73 | 1009.4 |
| 20260831054551 | 82 | 194 | 1.0 | 4.0 | 0.00 | 0.00 | 0.00 | 74 | 1009.3 |
| 20260831054046 | 82 | 182 | 2.0 | 4.0 | 0.00 | 0.00 | 0.00 | 74 | 1009.3 |
| 20260831053541 | 82 | 164 | 1.0 | 5.0 | 0.00 | 0.00 | 0.00 | 74 | 1009.2 |
| 20260831053037 | 83 | 157 | 2.0 | 5.0 | 0.00 | 0.00 | 0.00 | 74 | 1009.2 |
| 20260831052533 | 83 | 130 | 2.0 | 5.0 | 0.00 | 0.00 | 0.00 | 73 | 1009.3 |
| 20260831052048 | 83 | 193 | 2.0 | 6.0 | 0.00 | 0.00 | 0.00 | 74 | 1009.2 |
| 20260831051545 | 83 | 201 | 2.0 | 6.0 | 0.00 | 0.00 | 0.00 | 74 | 1009.2 |
| 20260831051041 | 83 | 189 | 1.0 | 3.0 | 0.00 | 0.00 | 0.00 | 74 | 1009.2 |
| 20260831050549 | 83 | 189 | 1.0 | 3.0 | 0.00 | 0.00 | 0.00 | 75 | 1009.2 |
| 20260831050038 | 83 | 190 | 0.0 | 2.0 | 0.00 | 0.00 | 0.00 | 75 | 1009.3 |
| 20260831045548 | 84 | 190 | 1.0 | 2.0 | 0.00 | 0.00 | 0.00 | 74 | 1009.4 |
| 20260831045112 | 84 | 190 | 0.0 | 2.0 | 0.00 | 0.00 | 0.00 | 74 | 1009.4 |
| 20260831044545 | 84 | 190 | 1.0 | 2.0 | 0.00 | 0.00 | 0.00 | 73 | 1009.3 |
| 20260831044036 | 84 | 190 | 0.0 | 2.0 | 0.00 | 0.00 | 0.00 | 73 | 1009.2 |
| 20260831043533 | 84 | 190 | 1.0 | 3.0 | 0.00 | 0.00 | 0.00 | 73 | 1009.3 |
| 20260831043048 | 84 | 190 | 1.0 | 3.0 | 0.00 | 0.00 | 0.00 | 73 | 1009.3 |
| 20260831042543 | 85 | 190 | 2.0 | 2.0 | 0.00 | 0.00 | 0.00 | 73 | 1009.2 |
| 20260831042059 | 85 | 190 | 2.0 | 3.0 | 0.00 | 0.00 | 0.00 | 73 | 1009.3 |
| 20260831041553 | 85 | 190 | 2.0 | 3.0 | 0.00 | 0.00 | 0.00 | 72 | 1009.3 |
| 20260831041111 | 85 | 190 | 2.0 | 3.0 | 0.00 | 0.00 | 0.00 | 72 | 1009.4 |
| 20260831040557 | 85 | 191 | 2.0 | 3.0 | 0.00 | 0.00 | 0.00 | 71 | 1009.4 |
| 20260831040037 | 85 | 191 | 1.0 | 2.0 | 0.00 | 0.00 | 0.00 | 71 | 1009.5 |
| 20260831035534 | 85 | 191 | 1.0 | 3.0 | 0.00 | 0.00 | 0.00 | 70 | 1009.5 |
| 20260831035032 | 85 | 191 | 2.0 | 3.0 | 0.00 | 0.00 | 0.00 | 69 | 1009.6 |
| 20260831034550 | 86 | 191 | 1.0 | 2.0 | 0.00 | 0.00 | 0.00 | 68 | 1009.6 |
| 20260831034049 | 86 | 191 | 1.0 | 2.0 | 0.00 | 0.00 | 0.00 | 68 | 1009.6 |
| 20260831033609 | 86 | 191 | 1.0 | 2.0 | 0.00 | 0.00 | 0.00 | 68 | 1009.6 |
| 20260831033045 | 85 | 191 | 1.0 | 2.0 | 0.00 | 0.00 | 0.00 | 69 | 1009.6 |
| 20260831032543 | 85 | 191 | 1.0 | 2.0 | 0.00 | 0.00 | 0.00 | 69 | 1009.6 |
| 20260831032044 | 85 | 191 | 1.0 | 2.0 | 0.00 | 0.00 | 0.00 | 70 | 1009.6 |
| 20260831031541 | 84 | 191 | 0.0 | 0.0 | 0.00 | 0.00 | 0.00 | 71 | 1009.7 |
| 20260831031039 | 84 | 191 | 0.0 | 0.0 | 0.00 | 0.00 | 0.00 | 72 | 1009.7 |
| 20260831030613 | 84 | 191 | 0.0 | 0.0 | 0.00 | 0.00 | 0.00 | 72 | 1009.8 |
| 20260831030049 | 85 | 191 | 0.0 | 0.0 | 0.00 | 0.00 | 0.00 | 71 | 1009.8 |
| 20260831025547 | 85 | 191 | 0.0 | 0.0 | 0.00 | 0.00 | 0.00 | 71 | 1009.8 |
| 20260831025044 | 85 | 191 | 0.0 | 2.0 | 0.00 | 0.00 | 0.00 | 70 | 1009.8 |
| 20260831024542 | 85 | 191 | 1.0 | 2.0 | 0.00 | 0.00 | 0.00 | 71 | 1009.7 |
| 20260831024101 | 85 | 191 | 1.0 | 2.0 | 0.00 | 0.00 | 0.00 | 71 | 1009.7 |
| 20260831023111 | 85 | 191 | 1.0 | 2.0 | 0.00 | 0.00 | 0.00 | 71 | 1009.7 |
| 20260831022609 | 85 | 191 | 1.0 | 3.0 | 0.00 | 0.00 | 0.00 | 71 | 1009.7 |
| 20260831022046 | 85 | 191 | 1.0 | 3.0 | 0.00 | 0.00 | 0.00 | 71 | 1009.6 |
| 20260831021607 | 85 | 191 | 0.0 | 2.0 | 0.00 | 0.00 | 0.00 | 71 | 1009.6 |
| 20260831021044 | 86 | 191 | 1.0 | 2.0 | 0.00 | 0.00 | 0.00 | 70 | 1009.5 |
| 20260831020553 | 86 | 191 | 1.0 | 2.0 | 0.00 | 0.00 | 0.00 | 70 | 1009.6 |
| 20260831020052 | 86 | 191 | 1.0 | 2.0 | 0.00 | 0.00 | 0.00 | 70 | 1009.6 |
| 20260831015549 | 86 | 191 | 1.0 | 2.0 | 0.00 | 0.00 | 0.00 | 69 | 1009.4 |
| 20260831015110 | 85 | 191 | 0.0 | 2.0 | 0.00 | 0.00 | 0.00 | 69 | 1009.4 |
| 20260831014609 | 85 | 191 | 1.0 | 2.0 | 0.00 | 0.00 | 0.00 | 69 | 1009.3 |
| 20260831014046 | 85 | 191 | 1.0 | 2.0 | 0.00 | 0.00 | 0.00 | 69 | 1009.3 |
| 20260831013606 | 85 | 191 | 0.0 | 1.0 | 0.00 | 0.00 | 0.00 | 69 | 1009.1 |
| 20260831013043 | 86 | 191 | 0.0 | 1.0 | 0.00 | 0.00 | 0.00 | 69 | 1009.1 |
| 20260831012542 | 86 | 191 | 0.0 | 0.0 | 0.00 | 0.00 | 0.00 | 69 | 1009.2 |
| 20260831012044 | 86 | 191 | 0.0 | 0.0 | 0.00 | 0.00 | 0.00 | 68 | 1009.2 |
| 20260831011541 | 86 | 191 | 0.0 | 0.0 | 0.00 | 0.00 | 0.00 | 68 | 1009.2 |
| 20260831011037 | 86 | 191 | 0.0 | 2.0 | 0.00 | 0.00 | 0.00 | 68 | 1009.1 |
| 20260831010610 | 87 | 191 | 0.0 | 2.0 | 0.00 | 0.00 | 0.00 | 68 | 1009.1 |
| 20260831010047 | 87 | 191 | 1.0 | 2.0 | 0.00 | 0.00 | 0.00 | 67 | 1009.0 |
| 20260831005544 | 88 | 191 | 1.0 | 2.0 | 0.00 | 0.00 | 0.00 | 66 | 1009.0 |
| 20260831005043 | 88 | 191 | 1.0 | 2.0 | 0.00 | 0.00 | 0.00 | 65 | 1009.0 |
| 20260831004539 | 89 | 191 | 0.0 | 2.0 | 0.00 | 0.00 | 0.00 | 63 | 1009.0 |
| 20260831004038 | 89 | 191 | 0.0 | 1.0 | 0.00 | 0.00 | 0.00 | 62 | 1009.0 |
| 20260831003535 | 90 | 191 | 0.0 | 1.0 | 0.00 | 0.00 | 0.00 | 61 | 1009.0 |
| 20260831003034 | 90 | 191 | 1.0 | 2.0 | 0.00 | 0.00 | 0.00 | 60 | 1009.0 |
| 20260831002551 | 91 | 191 | 1.0 | 5.0 | 0.00 | 0.00 | 0.00 | 59 | 1009.1 |
| 20260831002049 | 91 | 191 | 1.0 | 5.0 | 0.00 | 0.00 | 0.00 | 59 | 1009.1 |
| 20260831001546 | 91 | 191 | 1.0 | 4.0 | 0.00 | 0.00 | 0.00 | 59 | 1009.0 |
| 20260831001043 | 91 | 191 | 1.0 | 3.0 | 0.00 | 0.00 | 0.00 | 57 | 1008.9 |
| 20260831000557 | 92 | 191 | 1.0 | 4.0 | 0.00 | 0.00 | 0.00 | 57 | 1008.9 |
| 20260831000035 | 92 | 191 | 2.0 | 4.0 | 0.00 | 0.00 | 0.00 | 57 | 1008.9 |
| 20260830235534 | 92 | 189 | 1.0 | 5.0 | 0.00 | 0.00 | 0.00 | 57 | 1009.0 |
| 20260830235032 | 92 | 188 | 3.0 | 5.0 | 0.00 | 0.00 | 0.00 | 57 | 1009.0 |
| 20260830234550 | 93 | 175 | 2.0 | 4.0 | 0.00 | 0.00 | 0.00 | 56 | 1009.1 |
| 20260830234110 | 93 | 175 | 1.0 | 5.0 | 0.00 | 0.00 | 0.00 | 57 | 1009.0 |
| 20260830233546 | 93 | 153 | 2.0 | 6.0 | 0.00 | 0.00 | 0.00 | 56 | 1009.0 |
| 20260830233044 | 93 | 185 | 3.0 | 6.0 | 0.00 | 0.00 | 0.00 | 56 | 1008.9 |
| 20260830232604 | 94 | 199 | 3.0 | 6.0 | 0.00 | 0.00 | 0.00 | 56 | 1008.9 |
| 20260830232040 | 93 | 191 | 2.0 | 6.0 | 0.00 | 0.00 | 0.00 | 55 | 1008.9 |
| 20260830231539 | 93 | 194 | 2.0 | 7.0 | 0.00 | 0.00 | 0.00 | 55 | 1008.9 |
| 20260830231038 | 93 | 196 | 2.0 | 7.0 | 0.00 | 0.00 | 0.00 | 56 | 1008.9 |
| 20260830230609 | 93 | 182 | 3.0 | 7.0 | 0.00 | 0.00 | 0.00 | 56 | 1008.9 |
| 20260830230046 | 92 | 194 | 3.0 | 7.0 | 0.00 | 0.00 | 0.00 | 56 | 1008.9 |
| 20260830225543 | 92 | 158 | 4.0 | 7.0 | 0.00 | 0.00 | 0.00 | 56 | 1008.9 |
| 20260830225041 | 92 | 191 | 4.0 | 8.0 | 0.00 | 0.00 | 0.00 | 57 | 1008.8 |
| 20260830224539 | 92 | 170 | 4.0 | 8.0 | 0.00 | 0.00 | 0.00 | 56 | 1008.8 |
| 20260830224038 | 92 | 184 | 4.0 | 8.0 | 0.00 | 0.00 | 0.00 | 57 | 1008.8 |
| 20260830223555 | 92 | 226 | 4.0 | 8.0 | 0.00 | 0.00 | 0.00 | 58 | 1008.8 |
| 20260830223037 | 92 | 184 | 3.0 | 8.0 | 0.00 | 0.00 | 0.00 | 57 | 1008.8 |
| 20260830222534 | 92 | 196 | 3.0 | 6.0 | 0.00 | 0.00 | 0.00 | 57 | 1008.9 |
| 20260830222032 | 91 | 215 | 4.0 | 8.0 | 0.00 | 0.00 | 0.00 | 58 | 1008.8 |
| 20260830221550 | 91 | 192 | 4.0 | 8.0 | 0.00 | 0.00 | 0.00 | 59 | 1008.7 |
| 20260830221048 | 91 | 200 | 3.0 | 7.0 | 0.00 | 0.00 | 0.00 | 56 | 1008.8 |
| 20260830220555 | 91 | 195 | 4.0 | 7.0 | 0.00 | 0.00 | 0.00 | 56 | 1008.8 |
| 20260830220055 | 91 | 195 | 2.0 | 7.0 | 0.00 | 0.00 | 0.00 | 58 | 1008.8 |
| 20260830215531 | 91 | 188 | 3.0 | 6.0 | 0.00 | 0.00 | 0.00 | 56 | 1008.8 |
| 20260830215049 | 90 | 184 | 2.0 | 5.0 | 0.00 | 0.00 | 0.00 | 57 | 1008.7 |
| 20260830214547 | 90 | 184 | 2.0 | 7.0 | 0.00 | 0.00 | 0.00 | 57 | 1008.6 |
| 20260830214045 | 90 | 191 | 3.0 | 7.0 | 0.00 | 0.00 | 0.00 | 56 | 1008.7 |
| 20260830213544 | 91 | 194 | 4.0 | 6.0 | 0.00 | 0.00 | 0.00 | 56 | 1008.6 |
| 20260830213042 | 91 | 204 | 3.0 | 7.0 | 0.00 | 0.00 | 0.00 | 55 | 1008.7 |
| 20260830212540 | 91 | 191 | 3.0 | 7.0 | 0.00 | 0.00 | 0.00 | 55 | 1008.6 |
| 20260830212039 | 92 | 262 | 2.0 | 6.0 | 0.00 | 0.00 | 0.00 | 53 | 1008.6 |
| 20260830211538 | 92 | 264 | 3.0 | 9.0 | 0.00 | 0.00 | 0.00 | 54 | 1008.8 |
| 20260830211040 | 91 | 195 | 5.0 | 9.0 | 0.00 | 0.00 | 0.00 | 56 | 1008.9 |
| 20260830210555 | 91 | 179 | 2.0 | 11.0 | 0.00 | 0.00 | 0.00 | 57 | 1008.9 |
| 20260830210033 | 90 | 166 | 4.0 | 5.0 | 0.00 | 0.00 | 0.00 | 58 | 1009.1 |
| 20260830205533 | 90 | 229 | 3.0 | 5.0 | 0.00 | 0.00 | 0.00 | 60 | 1009.2 |
| 20260830205112 | 89 | 214 | 2.0 | 4.0 | 0.00 | 0.00 | 0.00 | 61 | 1009.2 |
| 20260830204549 | 89 | 226 | 2.0 | 5.0 | 0.00 | 0.00 | 0.00 | 59 | 1009.5 |
| 20260830204111 | 89 | 242 | 2.0 | 4.0 | 0.00 | 0.00 | 0.00 | 58 | 1009.4 |
| 20260830203547 | 89 | 229 | 3.0 | 5.0 | 0.00 | 0.00 | 0.00 | 58 | 1009.6 |
| 20260830203046 | 89 | 195 | 2.0 | 6.0 | 0.00 | 0.00 | 0.00 | 58 | 1009.3 |
| 20260830202543 | 89 | 215 | 3.0 | 6.0 | 0.00 | 0.00 | 0.00 | 57 | 1009.0 |
| 20260830202041 | 90 | 171 | 3.0 | 5.0 | 0.00 | 0.00 | 0.00 | 58 | 1009.0 |
| 20260830201539 | 90 | 176 | 2.0 | 5.0 | 0.00 | 0.00 | 0.00 | 58 | 1009.0 |
| 20260830201036 | 90 | 190 | 3.0 | 4.0 | 0.00 | 0.00 | 0.00 | 58 | 1009.0 |
| 20260830200608 | 90 | 223 | 3.0 | 7.0 | 0.00 | 0.00 | 0.00 | 57 | 1009.1 |
| 20260830200106 | 90 | 194 | 4.0 | 8.0 | 0.00 | 0.00 | 0.00 | 56 | 1009.1 |
| 20260830195540 | 91 | 209 | 3.0 | 12.0 | 0.00 | 0.00 | 0.00 | 58 | 1009.4 |
| 20260830195039 | 90 | 259 | 4.0 | 11.0 | 0.00 | 0.00 | 0.00 | 58 | 1009.6 |
| 20260830194534 | 89 | 167 | 4.0 | 9.0 | 0.00 | 0.00 | 0.00 | 59 | 1009.7 |
| 20260830194034 | 89 | 187 | 4.0 | 9.0 | 0.00 | 0.00 | 0.00 | 60 | 1009.7 |
| 20260830193551 | 89 | 210 | 3.0 | 9.0 | 0.00 | 0.00 | 0.00 | 61 | 1009.9 |
| 20260830193046 | 89 | 236 | 3.0 | 8.0 | 0.00 | 0.00 | 0.00 | 61 | 1009.8 |
| 20260830192604 | 89 | 172 | 4.0 | 8.0 | 0.00 | 0.00 | 0.00 | 61 | 1009.8 |
| 20260830192038 | 89 | 195 | 3.0 | 7.0 | 0.00 | 0.00 | 0.00 | 61 | 1009.7 |
| 20260830191553 | 88 | 191 | 3.0 | 6.0 | 0.00 | 0.00 | 0.00 | 61 | 1009.8 |
| 20260830191109 | 88 | 205 | 3.0 | 8.0 | 0.00 | 0.00 | 0.00 | 60 | 1009.6 |
| 20260830190557 | 88 | 196 | 4.0 | 11.0 | 0.00 | 0.00 | 0.00 | 59 | 1009.5 |
| 20260830190034 | 88 | 179 | 4.0 | 11.0 | 0.00 | 0.00 | 0.00 | 59 | 1009.5 |
| 20260830185545 | 88 | 199 | 5.0 | 9.0 | 0.00 | 0.00 | 0.00 | 58 | 1009.4 |
| 20260830185043 | 88 | 200 | 2.0 | 11.0 | 0.00 | 0.00 | 0.00 | 59 | 1009.5 |
| 20260830184539 | 88 | 190 | 5.0 | 12.0 | 0.00 | 0.00 | 0.00 | 58 | 1009.6 |
| 20260830184036 | 88 | 164 | 4.0 | 13.0 | 0.00 | 0.00 | 0.00 | 58 | 1009.5 |
| 20260830183534 | 87 | 153 | 4.0 | 13.0 | 0.00 | 0.00 | 0.00 | 59 | 1009.6 |
| 20260830183050 | 87 | 233 | 3.0 | 8.0 | 0.00 | 0.00 | 0.00 | 58 | 1009.7 |
| 20260830182549 | 88 | 206 | 3.0 | 13.0 | 0.00 | 0.00 | 0.00 | 57 | 1009.8 |
| 20260830182046 | 88 | 221 | 5.0 | 13.0 | 0.00 | 0.00 | 0.00 | 56 | 1009.9 |
| 20260830181544 | 88 | 167 | 5.0 | 10.0 | 0.00 | 0.00 | 0.00 | 56 | 1010.0 |
| 20260830181102 | 88 | 224 | 4.0 | 10.0 | 0.00 | 0.00 | 0.00 | 56 | 1010.1 |
| 20260830180613 | 88 | 266 | 3.0 | 12.0 | 0.00 | 0.00 | 0.00 | 55 | 1010.0 |
| 20260830180047 | 88 | 198 | 6.0 | 14.0 | 0.00 | 0.00 | 0.00 | 55 | 1010.1 |
| 20260830175545 | 88 | 200 | 7.0 | 11.0 | 0.00 | 0.00 | 0.00 | 56 | 1010.2 |
| 20260830175043 | 88 | 223 | 5.0 | 17.0 | 0.00 | 0.00 | 0.00 | 56 | 1010.3 |
| 20260830174545 | 87 | 214 | 5.0 | 17.0 | 0.00 | 0.00 | 0.00 | 56 | 1010.2 |
| 20260830174041 | 87 | 203 | 6.0 | 12.0 | 0.00 | 0.00 | 0.00 | 56 | 1010.2 |
| 20260830173601 | 87 | 110 | 6.0 | 11.0 | 0.00 | 0.00 | 0.00 | 60 | 1010.1 |
| 20260830173037 | 87 | 211 | 7.0 | 11.0 | 0.00 | 0.00 | 0.00 | 62 | 1010.2 |
| 20260830172536 | 86 | 169 | 3.0 | 12.0 | 0.00 | 0.00 | 0.00 | 62 | 1010.2 |
| 20260830172034 | 86 | 184 | 3.0 | 8.0 | 0.00 | 0.00 | 0.00 | 62 | 1010.2 |
| 20260830171531 | 85 | 215 | 4.0 | 8.0 | 0.00 | 0.00 | 0.00 | 62 | 1010.1 |
| 20260830171048 | 85 | 193 | 3.0 | 10.0 | 0.00 | 0.00 | 0.00 | 63 | 1010.2 |
| 20260830170556 | 85 | 194 | 6.0 | 10.0 | 0.00 | 0.00 | 0.00 | 63 | 1010.1 |
| 20260830170035 | 85 | 187 | 3.0 | 9.0 | 0.00 | 0.00 | 0.00 | 63 | 1010.2 |
| 20260830165532 | 85 | 201 | 5.0 | 10.0 | 0.00 | 0.00 | 0.00 | 63 | 1010.4 |
| 20260830165050 | 85 | 202 | 4.0 | 10.0 | 0.00 | 0.00 | 0.00 | 66 | 1010.3 |
| 20260830164548 | 84 | 169 | 5.0 | 10.0 | 0.00 | 0.00 | 0.00 | 64 | 1010.4 |
| 20260830164048 | 84 | 137 | 4.0 | 9.0 | 0.00 | 0.00 | 0.00 | 64 | 1010.4 |
| 20260830163607 | 84 | 200 | 4.0 | 10.0 | 0.00 | 0.00 | 0.00 | 65 | 1010.2 |
| 20260830163046 | 84 | 194 | 4.0 | 12.0 | 0.00 | 0.00 | 0.00 | 64 | 1010.3 |
| 20260830162604 | 83 | 181 | 5.0 | 12.0 | 0.00 | 0.00 | 0.00 | 63 | 1010.3 |
| 20260830162040 | 83 | 133 | 3.0 | 8.0 | 0.00 | 0.00 | 0.00 | 63 | 1010.4 |
| 20260830161540 | 83 | 162 | 2.0 | 9.0 | 0.00 | 0.00 | 0.00 | 64 | 1010.3 |
| 20260830161035 | 83 | 176 | 5.0 | 9.0 | 0.00 | 0.00 | 0.00 | 63 | 1010.3 |
| 20260830160608 | 83 | 183 | 4.0 | 9.0 | 0.00 | 0.00 | 0.00 | 63 | 1010.2 |
| 20260830160042 | 83 | 191 | 5.0 | 8.0 | 0.00 | 0.00 | 0.00 | 64 | 1010.1 |
| 20260830155540 | 83 | 189 | 3.0 | 8.0 | 0.00 | 0.00 | 0.00 | 65 | 1010.1 |
| 20260830155041 | 82 | 182 | 2.0 | 9.0 | 0.00 | 0.00 | 0.00 | 65 | 1010.4 |
| 20260830154539 | 82 | 195 | 3.0 | 9.0 | 0.00 | 0.00 | 0.00 | 65 | 1010.5 |
| 20260830154036 | 82 | 182 | 2.0 | 8.0 | 0.00 | 0.00 | 0.00 | 66 | 1010.4 |
| 20260830153556 | 82 | 199 | 3.0 | 12.0 | 0.00 | 0.00 | 0.00 | 67 | 1010.4 |
| 20260830153051 | 82 | 207 | 4.0 | 12.0 | 0.00 | 0.00 | 0.00 | 67 | 1010.4 |
| 20260830152549 | 81 | 190 | 3.0 | 6.0 | 0.00 | 0.00 | 0.00 | 69 | 1010.4 |
| 20260830152047 | 81 | 194 | 2.0 | 5.0 | 0.00 | 0.00 | 0.00 | 69 | 1010.2 |
| 20260830151544 | 80 | 184 | 2.0 | 7.0 | 0.00 | 0.00 | 0.00 | 71 | 1010.2 |
| 20260830151042 | 79 | 194 | 2.0 | 4.0 | 0.00 | 0.00 | 0.00 | 71 | 1010.2 |
| 20260830150550 | 79 | 193 | 2.0 | 3.0 | 0.00 | 0.00 | 0.00 | 72 | 1010.2 |
| 20260830150049 | 79 | 175 | 1.0 | 3.0 | 0.00 | 0.00 | 0.00 | 72 | 1010.1 |
| 20260830145547 | 79 | 175 | 1.0 | 3.0 | 0.00 | 0.00 | 0.00 | 72 | 1010.2 |
| 20260830145046 | 79 | 174 | 1.0 | 3.0 | 0.00 | 0.00 | 0.00 | 72 | 1010.1 |
| 20260830144544 | 79 | 175 | 0.0 | 3.0 | 0.00 | 0.00 | 0.00 | 72 | 1010.3 |
| 20260830144104 | 78 | 175 | 2.0 | 3.0 | 0.00 | 0.00 | 0.00 | 72 | 1009.8 |
| 20260830143541 | 78 | 177 | 2.0 | 4.0 | 0.00 | 0.00 | 0.00 | 73 | 1009.8 |
| 20260830143039 | 78 | 174 | 2.0 | 4.0 | 0.00 | 0.00 | 0.00 | 73 | 1009.8 |
| 20260830142539 | 77 | 167 | 2.0 | 4.0 | 0.00 | 0.00 | 0.00 | 73 | 1009.8 |
| 20260830142038 | 77 | 172 | 2.0 | 4.0 | 0.00 | 0.00 | 0.00 | 73 | 1009.9 |
| 20260830141555 | 77 | 175 | 1.0 | 3.0 | 0.00 | 0.00 | 0.00 | 72 | 1009.9 |
| 20260830141031 | 77 | 175 | 1.0 | 3.0 | 0.00 | 0.00 | 0.00 | 72 | 1009.9 |
| 20260830140605 | 77 | 175 | 1.0 | 3.0 | 0.00 | 0.00 | 0.00 | 72 | 1009.9 |
| 20260830140040 | 77 | 175 | 1.0 | 3.0 | 0.00 | 0.00 | 0.00 | 72 | 1009.9 |
| 20260830135538 | 77 | 175 | 1.0 | 3.0 | 0.00 | 0.00 | 0.00 | 72 | 1009.9 |
| 20260830135037 | 77 | 175 | 1.0 | 3.0 | 0.00 | 0.00 | 0.00 | 73 | 1010.1 |
| 20260830134536 | 77 | 175 | 1.0 | 4.0 | 0.00 | 0.00 | 0.00 | 73 | 1009.9 |
| 20260830134033 | 77 | 175 | 1.0 | 4.0 | 0.00 | 0.00 | 0.00 | 73 | 1009.9 |
| 20260830133550 | 77 | 185 | 1.0 | 2.0 | 0.00 | 0.00 | 0.00 | 73 | 1009.9 |
| 20260830133109 | 77 | 185 | 1.0 | 2.0 | 0.00 | 0.00 | 0.00 | 73 | 1010.0 |
| 20260830132547 | 77 | 185 | 0.0 | 2.0 | 0.00 | 0.00 | 0.00 | 73 | 1010.2 |
| 20260830132045 | 77 | 185 | 0.0 | 4.0 | 0.00 | 0.00 | 0.00 | 73 | 1010.1 |
| 20260830131543 | 77 | 185 | 1.0 | 4.0 | 0.00 | 0.00 | 0.00 | 72 | 1010.1 |
| 20260830131038 | 77 | 183 | 1.0 | 4.0 | 0.00 | 0.00 | 0.00 | 72 | 1010.1 |
| 20260830130612 | 77 | 199 | 2.0 | 4.0 | 0.00 | 0.00 | 0.00 | 72 | 1010.1 |
| 20260830130032 | 77 | 197 | 1.0 | 3.0 | 0.00 | 0.00 | 0.00 | 71 | 1010.1 |
| 20260830125549 | 77 | 193 | 2.0 | 4.0 | 0.00 | 0.00 | 0.00 | 71 | 1010.0 |
| 20260830125047 | 77 | 193 | 1.0 | 4.0 | 0.00 | 0.00 | 0.00 | 71 | 1010.0 |
| 20260830124544 | 77 | 189 | 2.0 | 5.0 | 0.00 | 0.00 | 0.00 | 72 | 1010.0 |
| 20260830124043 | 77 | 179 | 2.0 | 5.0 | 0.00 | 0.00 | 0.00 | 72 | 1009.9 |
| 20260830123541 | 76 | 174 | 2.0 | 5.0 | 0.00 | 0.00 | 0.00 | 72 | 1010.0 |
| 20260830123038 | 76 | 169 | 2.0 | 4.0 | 0.00 | 0.00 | 0.00 | 72 | 1010.1 |
| 20260830122537 | 76 | 182 | 1.0 | 3.0 | 0.00 | 0.00 | 0.00 | 72 | 1010.2 |
| 20260830122116 | 76 | 183 | 1.0 | 4.0 | 0.00 | 0.00 | 0.00 | 72 | 1010.3 |
| 20260830121549 | 76 | 183 | 1.0 | 4.0 | 0.00 | 0.00 | 0.00 | 72 | 1010.3 |
| 20260830121048 | 76 | 158 | 1.0 | 4.0 | 0.00 | 0.00 | 0.00 | 72 | 1010.3 |
| 20260830120555 | 76 | 155 | 1.0 | 4.0 | 0.00 | 0.00 | 0.00 | 73 | 1010.1 |
| 20260830120032 | 76 | 156 | 1.0 | 3.0 | 0.00 | 0.00 | 0.00 | 73 | 1010.1 |
| 20260830115550 | 76 | 156 | 1.0 | 2.0 | 0.00 | 0.00 | 0.00 | 73 | 1010.1 |
| 20260830115047 | 76 | 156 | 0.0 | 3.0 | 0.00 | 0.00 | 0.00 | 73 | 1010.2 |
| 20260830114544 | 77 | 156 | 0.0 | 7.0 | 0.00 | 0.00 | 0.00 | 72 | 1010.1 |
| 20260830114041 | 77 | 141 | 2.0 | 7.0 | 0.00 | 0.00 | 0.00 | 71 | 1010.1 |
| 20260830113540 | 77 | 188 | 2.0 | 4.0 | 0.00 | 0.00 | 0.00 | 71 | 1010.4 |
| 20260830113041 | 77 | 191 | 0.0 | 2.0 | 0.00 | 0.00 | 0.00 | 71 | 1010.4 |
| 20260830112601 | 77 | 191 | 1.0 | 4.0 | 0.00 | 0.00 | 0.00 | 71 | 1010.3 |
| 20260830112037 | 78 | 191 | 1.0 | 5.0 | 0.00 | 0.00 | 0.00 | 70 | 1010.3 |
| 20260830111534 | 78 | 188 | 1.0 | 5.0 | 0.00 | 0.00 | 0.00 | 70 | 1010.2 |
| 20260830111031 | 78 | 170 | 2.0 | 4.0 | 0.00 | 0.00 | 0.00 | 69 | 1010.1 |
| 20260830110604 | 78 | 186 | 1.0 | 2.0 | 0.00 | 0.00 | 0.00 | 69 | 1010.3 |
| 20260830110040 | 78 | 186 | 1.0 | 4.0 | 0.00 | 0.00 | 0.00 | 69 | 1010.3 |
| 20260830105559 | 78 | 184 | 2.0 | 5.0 | 0.00 | 0.00 | 0.00 | 69 | 1010.3 |